Location: Taukkyan
(23.1052°N, 94.0030°E)
Time: 11:47:13
(UTC+00:00)

GOES 2 Rocket - Pass Details

Date: 06 July 2020
Orbit: 569 x 1674 km, 28.4° (Epoch: 14 August)

Event Time Altitude Azimuth Distance (km) Brightness Sun altitude
Exits shadow 20:58:56 24° 295° (WNW) 1,885 5.3 -25.0°
Maximum altitude 21:02:38 51° 360° (N) 1,074 4.4 -24.4°
Drops below altitude 10° 21:07:43 10° 76° (ENE) 2,217 6.7 -23.5°
Sets 21:09:55 0° 82° (E) 3,024 7.5 -23.1°
